Weather History for Plattsburgh, NY

Change the Weather History Date:

Saturday, February 9, 2013

  Actual Average Record
Temperature  
Mean Temperature 6 °F 19 °F  
Max Temperature 18 °F 29 °F 47 °F (1991)
Min Temperature -6 °F 9 °F -17 °F (1951)
Degree Days  
Heating Degree Days 59 46  
Month to date heating degree days 423 424  
Since 1 July heating degree days 4493 4800  
Moisture  
Dew Point 2 °F    
Average Humidity 64    
Maximum Humidity 88    
Minimum Humidity 40    
Precipitation  
Precipitation T in - 0.26 in (1952)
Month to date precipitation 0.01  
Year to date precipitation 0.76  
Sea Level Pressure  
Sea Level Pressure 30.20 in    
Wind  
Wind Speed 15 mph (North)    
Max Wind Speed 29 mph    
Max Gust Speed 36 mph    
Visibility 7 miles    
Events Snow    
T = Trace of Precipitation, MM = Missing Value Source: NWS Daily Summary

Daily Weather History Graph

Daily Weather History Graph

Search for Another Location

Airport:

Trip Planner

Search our weather history database for the weather conditions in past years. The results will help you decide how hot, cold, wet, or windy it might be!

Date:

Astronomy

Feb. 09, 2013 Rise Set
Actual Time 7:02 AM EST 5:14 PM EST
Civil Twilight 6:32 AM EST 5:44 PM EST
Nautical Twilight 5:57 AM EST 6:19 PM EST
Astronomical Twilight 5:23 AM EST 6:53 PM EST
Moon 6:11 AM EST (2/9) 4:55 PM EST (2/9)
Length of Visible Light 11h 12m
Length of Day
10h 11m
Waning Crescent, 0% of the Moon is Illuminated
Feb 9
Waning Crescent
Feb 10
New
Feb 17
First Quarter
Feb 25
Full
Mar 4
Last Quarter

Hourly Weather History & Observations

Time (EST) Temp. Windchill Dew Point Humidity Pressure Visibility Wind Dir Wind Speed Gust Speed Precip Events Conditions
12:28 AM 14.0 °F -4.7 °F 10.4 °F 86% 30.01 in 2.5 mi North 23.0 mph 31.1 mph 0.00 in Snow Light Snow
12:49 AM 14.0 °F -4.7 °F 10.4 °F 86% 30.02 in 1.8 mi North 23.0 mph - 0.00 in Snow Light Snow
12:53 AM 14.0 °F -4.3 °F 10.0 °F 84% 30.04 in 1.8 mi North 21.9 mph - 0.00 in Snow Light Snow
1:13 AM 12.2 °F -6.3 °F 10.4 °F 92% 30.04 in 1.5 mi North 20.7 mph - 0.00 in Snow Light Snow
1:53 AM 12.0 °F -6.9 °F 8.1 °F 84% 30.07 in 1.5 mi North 21.9 mph 28.8 mph 0.00 in Snow Light Snow
2:34 AM 10.4 °F -8.2 °F 6.8 °F 85% 30.07 in 2.0 mi North 19.6 mph 33.4 mph 0.00 in Snow Light Snow
2:53 AM 10.9 °F -7.9 °F 6.1 °F 81% 30.10 in 2.5 mi North 20.7 mph 28.8 mph 0.00 in Snow Light Snow
3:02 AM 10.4 °F -9.1 °F 6.8 °F 85% 30.08 in 3.0 mi North 21.9 mph 27.6 mph 0.00 in Snow Light Snow
3:25 AM 10.4 °F -8.6 °F 6.8 °F 85% 30.09 in 2.5 mi North 20.7 mph 28.8 mph 0.00 in Snow Light Snow
3:35 AM 10.4 °F -9.1 °F 6.8 °F 85% 30.09 in 3.0 mi North 21.9 mph 28.8 mph 0.00 in Snow Light Snow
3:53 AM 10.0 °F -9.5 °F 6.1 °F 84% 30.11 in 3.0 mi North 21.9 mph 28.8 mph 0.00 in Snow Light Snow
4:53 AM 10.0 °F -10.0 °F 3.9 °F 76% 30.13 in 5.0 mi North 23.0 mph 31.1 mph 0.00 in   Overcast
5:00 AM 10.4 °F -9.5 °F 3.2 °F 73% 30.12 in 6.0 mi North 23.0 mph - 0.00 in   Overcast
5:53 AM 10.0 °F -8.6 °F 1.9 °F 70% 30.15 in 8.0 mi NNW 19.6 mph 28.8 mph 0.00 in   Clear
6:53 AM 10.0 °F -9.1 °F 3.0 °F 73% 30.18 in 9.0 mi North 20.7 mph 28.8 mph N/A   Clear
7:53 AM 10.0 °F -10.0 °F 1.0 °F 67% 30.21 in 7.0 mi North 23.0 mph 35.7 mph N/A   Clear
8:53 AM 10.0 °F -9.1 °F 1.0 °F 67% 30.23 in 10.0 mi North 20.7 mph 29.9 mph N/A   Clear
10:53 AM 12.9 °F -4.4 °F 1.9 °F 62% 30.26 in 10.0 mi North 18.4 mph - N/A   Clear
11:53 AM 14.0 °F -5.1 °F 1.0 °F 56% 30.26 in 10.0 mi North 24.2 mph 28.8 mph N/A   Clear
12:53 PM 15.1 °F -2.9 °F 1.0 °F 54% 30.25 in 10.0 mi North 21.9 mph 27.6 mph N/A   Clear
1:53 PM 16.0 °F -0.4 °F -0.9 °F 47% 30.26 in 10.0 mi North 18.4 mph - N/A   Clear
2:53 PM 17.1 °F 0.6 °F -2.9 °F 41% 30.27 in 10.0 mi North 19.6 mph - N/A   Clear
3:53 PM 17.1 °F 3.6 °F -2.9 °F 41% 30.27 in 10.0 mi North 12.7 mph - N/A   Clear
4:53 PM 14.0 °F 1.2 °F -4.0 °F 45% 30.29 in 10.0 mi NNW 10.4 mph - N/A   Clear
5:53 PM 15.1 °F 9.4 °F -5.1 °F 41% 30.32 in 10.0 mi NW 3.5 mph - N/A   Clear
6:53 PM 9.0 °F - -2.9 °F 59% 30.33 in 10.0 mi Calm Calm - N/A   Clear
7:53 PM 8.1 °F -0.5 °F -5.1 °F 55% 30.35 in 10.0 mi ENE 4.6 mph - N/A   Clear
8:53 PM 5.0 °F - -2.9 °F 70% 30.36 in 10.0 mi Calm Calm - N/A   Clear
9:53 PM 1.9 °F - -6.0 °F 69% 30.37 in 10.0 mi Calm Calm - N/A   Clear
10:53 PM 1.0 °F - -4.0 °F 79% 30.38 in 10.0 mi Calm Calm - N/A   Clear
11:53 PM -2.9 °F - -8.0 °F 79% 30.39 in 10.0 mi Calm Calm - N/A   Clear